Retour au catalogue

FENGYUN 1C DEB

ActifPO
NORAD 31168·DEBRIS·🇨🇳 China

Lancé May 10, 1999 depuis Taiyuan Satellite Launch Center

Loading…

Prochains Passages (prochaines 24 heures)

TLE

FraisSource: Space-Track

Époque: Sep 12, 2026, 21:58 UTC

1 31168U 99025BHW 26255.91531253  .00001915  00000-0  30695-3 0  9995
2 31168  98.9265  56.5563 0103276 293.9622  65.0794 14.69644128 31226

Suivez FENGYUN 1C DEB en temps réel avec AllMySat

Download on the App Store